Theta_e
299 296 294 299 301 300 301 299 297 299 303 301 301 301 304 307 307 307 308 310 311 313 318 326 340 349 351 353 353 354 355 359 357 355 353 352 352 352 353 354 356 357 355 355
294 292 299 302 302 300 299 298 297 300 302 301 301 301 304 306 306 308 308 310 311 314 318 331 342 348 349 352 353 353 355 358 356 354 355 354 353 352 353 354 356 355 355 356
293 296 299 299 299 298 298 297 298 298 301 301 301 298 301 305 307 308 309 311 313 313 315 320 333 342 348 350 352 352 355 357 357 358 354 352 352 352 349 350 352 352 353 355
296 300 297 296 297 299 295 301 300 298 297 293 301 293 300 303 304 306 308 310 311 313 315 317 320 333 341 346 351 352 354 355 354 356 353 352 347 346 349 352 351 353 349 349
293 296 295 294 297 301 297 302 299 299 297 297 296 295 300 304 301 304 307 309 311 313 314 315 317 326 337 343 345 348 350 352 351 352 352 349 348 348 346 345 345 346 343 342
296 301 299 299 300 301 303 299 299 299 296 289 295 295 297 299 302 304 307 310 314 317 318 317 319 332 336 340 342 344 346 347 349 350 349 350 349 346 343 343 340 338 339 336
292 294 299 301 296 300 299 296 289 287 288 289 298 294 299 305 307 306 309 315 318 320 319 319 325 330 334 338 340 341 340 339 344 345 345 345 344 342 339 339 335 333 330 328
286 285 294 300 297 296 297 297 291 285 287 290 298 292 298 311 313 314 317 316 317 320 322 323 326 328 330 334 336 336 337 338 339 338 338 337 337 332 330 331 329 326 325 323
286 287 297 299 302 300 296 292 301 295 296 292 294 299 306 311 308 310 312 312 311 313 318 323 326 329 331 333 334 334 334 333 332 331 331 330 330 329 326 326 325 322 323 320
294 286 295 299 302 301 298 301 292 296 288 287 291 294 296 305 304 307 307 308 310 314 316 318 320 323 326 328 329 330 330 329 329 328 328 326 325 324 324 322 321 320 320 319
295 294 292 296 295 295 296 295 297 298 296 290 288 293 307 308 307 306 307 309 313 315 316 317 319 323 324 325 324 324 323 323 323 322 322 322 321 321 321 319 319 319 319 318
296 295 290 292 300 302 301 298 298 292 292 295 295 297 310 312 308 308 307 309 311 312 313 313 314 315 315 317 319 319 319 319 319 319 319 319 319 319 318 317 317 318 317 316
295 294 289 287 294 301 297 298 300 299 299 295 292 296 307 307 304 305 304 305 306 307 307 308 311 311 312 315 315 315 316 316 317 317 317 317 317 316 316 316 316 316 315 315
298 297 292 288 293 298 294 298 299 299 294 295 296 298 301 301 300 301 302 303 304 305 306 308 310 311 312 312 312 312 313 314 314 314 314 314 314 315 314 314 314 314 314 314
299 294 293 296 299 300 298 296 297 296 297 295 301 300 301 301 301 302 303 304 305 306 308 309 309 309 310 310 310 310 311 311 312 311 311 311 313 313 312 312 313 314 314 314
301 295 296 295 298 297 295 297 297 297 298 301 303 301 305 304 303 302 303 305 306 306 306 307 307 307 307 307 307 308 308 307 309 308 308 308 309 310 310 311 312 313 313 315
296 298 294 288 296 295 290 296 297 299 302 304 301 301 302 299 300 302 303 305 306 305 305 305 304 304 305 305 306 305 306 306 306 306 306 306 308 308 309 310 310 312 314 315
295 298 298 291 293 285 296 302 301 298 305 308 305 302 302 301 302 303 305 305 304 304 303 303 303 303 303 304 304 305 304 304 304 304 305 305 306 307 308 309 310 311 314 314
305 302 294 289 291 294 296 299 298 299 300 308 304 302 301 300 299 298 303 304 302 302 300 298 300 301 302 302 303 303 303 303 303 303 304 304 305 305 306 307 309 311 311 313
305 305 300 296 290 286 296 303 308 307 295 307 307 303 299 299 294 290 297 298 299 297 295 295 294 299 301 301 302 302 301 302 302 302 302 303 304 304 304 308 309 310 311 312
295 299 296 294 292 293 293 300 306 295 297 306 305 300 300 303 301 295 297 295 295 296 296 294 294 294 297 299 300 299 300 300 301 302 302 303 304 305 306 308 309 308 310 311
288 289 289 295 292 288 293 303 299 302 305 304 303 303 299 297 297 296 294 292 293 292 293 293 292 292 295 296 297 297 298 299 301 301 301 302 304 304 306 307 308 307 307 307
288 289 288 286 284 290 294 300 305 307 303 302 300 300 299 296 295 294 292 291 289 289 289 291 293 294 294 295 295 296 297 299 299 299 299 300 301 303 306 305 305 304 303 303
291 293 288 288 284 287 290 294 300 302 300 298 298 298 297 293 292 292 292 291 291 292 292 294 294 292 292 294 295 295 295 297 297 297 297 297 296 299 304 305 304 301 299 299
286 290 287 283 285 286 287 289 291 292 292 291 290 289 288 289 288 289 292 292 293 293 292 292 290 291 291 293 293 294 294 295 296 296 296 295 294 297 300 299 299 299 294 292
286 287 288 281 286 284 283 287 289 288 288 288 289 289 290 291 292 293 292 292 292 291 290 289 290 290 291 292 293 293 294 294 293 293 294 292 293 292 293 298 298 289 290 289
Wind_Speed
20 20 28 32 29 24 18 21 24 14 15 24 25 21 17 12 12 16 18 15 12 14 14 10 11 13 16 15 14 13 12 12 10 9 10 8 8 7 6 5 5 5 5 4
15 31 31 27 25 25 25 15 18 14 12 19 20 21 21 19 16 13 14 15 14 15 12 10 10 14 15 16 16 14 13 12 11 8 7 5 5 4 4 4 4 3 4 4
23 19 28 25 26 25 26 19 16 19 15 16 12 18 20 18 18 17 16 15 14 14 14 13 13 12 13 15 15 13 13 13 11 8 6 5 5 3 5 5 5 4 5 6
26 20 16 30 29 26 26 22 13 17 19 13 17 10 22 19 18 18 18 15 14 14 10 9 9 14 12 10 10 12 12 12 10 10 8 7 5 4 2 1 4 1 3 3
22 23 24 25 27 26 21 21 15 14 14 7 16 10 16 21 20 19 19 19 14 9 9 8 5 7 11 11 11 11 12 11 11 9 7 8 5 4 5 4 5 5 5 5
24 16 17 20 25 26 21 25 19 14 11 11 15 17 17 15 20 19 20 10 8 8 7 6 7 10 12 12 12 12 12 11 9 8 7 6 7 5 5 4 5 4 3 5
24 26 18 17 22 21 27 26 16 14 12 14 21 14 5 12 2 16 13 12 8 7 9 12 13 12 11 12 13 13 13 12 10 10 8 8 8 9 8 6 5 5 5 6
21 24 25 19 21 19 32 31 19 32 21 17 18 11 13 14 7 7 11 9 9 7 10 12 12 13 13 13 13 14 14 15 14 14 14 12 11 9 8 8 6 6 6 7
18 18 23 18 18 24 32 28 23 17 17 16 11 7 8 16 12 12 13 13 13 12 11 14 16 15 15 15 16 16 17 17 16 15 13 13 12 11 10 9 8 7 7 6
5 11 28 21 24 25 23 28 21 12 23 18 15 17 11 17 15 14 14 14 15 16 17 17 16 17 16 17 17 18 17 16 15 14 12 12 12 11 10 10 10 9 7 6
10 11 19 25 15 26 20 21 18 13 11 11 12 13 9 20 18 18 16 17 18 20 19 18 18 18 19 18 18 17 16 16 14 13 12 11 11 10 10 9 8 7 6 6
6 5 20 29 17 25 22 29 23 14 14 10 10 9 5 20 16 17 18 18 20 20 19 19 18 18 17 17 17 16 15 14 13 12 11 11 10 10 9 8 7 6 6 6
4 6 19 6 7 21 25 25 21 14 10 9 13 10 10 16 18 17 20 19 19 20 20 18 17 17 16 16 15 15 14 13 11 10 10 10 9 8 7 6 6 6 6 6
4 10 14 10 16 22 28 30 23 14 13 16 11 19 17 17 19 19 19 20 20 19 18 18 17 17 16 14 14 13 12 11 10 10 9 8 8 7 7 6 6 6 6 7
4 10 6 10 18 24 28 28 26 16 12 15 21 23 21 20 20 20 20 21 21 20 19 17 17 15 15 13 12 11 10 10 8 8 8 8 7 7 7 7 7 6 7 6
8 7 10 10 16 22 26 25 22 16 1 7 25 22 19 19 21 20 19 21 21 20 18 18 16 15 13 12 10 10 9 8 8 8 8 7 7 6 7 7 7 6 6 6
7 7 9 7 22 13 12 23 22 11 3 17 23 18 25 21 20 18 19 18 19 18 17 16 14 13 11 10 9 9 8 8 7 7 7 7 6 6 7 6 6 5 5 6
7 7 6 13 12 5 10 15 16 6 9 8 25 21 22 20 18 17 15 18 17 16 16 13 11 10 9 9 9 8 8 7 7 7 7 7 7 6 6 5 4 4 5 6
5 6 6 6 5 19 12 20 18 11 4 18 25 23 26 24 24 15 14 16 16 14 12 11 9 9 9 9 8 7 7 6 6 7 7 7 7 6 6 5 5 5 6 6
8 4 5 11 9 4 11 12 10 5 4 11 24 30 30 28 14 9 14 14 15 13 10 10 8 8 9 8 8 7 7 6 7 7 8 7 5 5 5 5 6 5 5 5
6 5 10 8 5 7 12 16 9 10 10 15 22 22 22 9 16 20 17 15 14 11 12 9 8 9 10 9 8 8 7 8 8 7 6 6 5 5 4 5 5 5 6 5
6 6 5 3 6 6 19 9 3 6 20 21 22 18 21 25 25 21 18 15 13 12 11 10 9 9 8 8 6 6 7 6 7 7 6 6 6 5 5 5 4 5 6 5
5 6 3 7 4 5 10 8 9 14 19 19 20 22 25 23 23 19 16 14 12 11 9 8 8 9 8 7 7 7 8 8 7 6 6 6 6 6 4 5 5 4 5 5
5 12 5 3 10 12 12 17 15 17 20 20 20 20 21 24 20 17 15 13 11 10 10 9 9 8 7 7 7 8 8 8 6 6 6 6 7 8 4 3 4 6 7 6
5 9 6 7 8 12 16 14 16 21 22 23 20 19 20 18 16 15 15 13 11 11 10 9 8 7 7 7 7 7 7 7 6 4 5 5 4 6 4 6 7 5 9 8
10 5 3 5 10 12 7 11 15 19 19 18 19 18 17 15 17 15 14 12 11 11 9 8 8 7 6 6 6 7 7 8 7 6 5 6 4 4 4 4 3 11 10 8
Wind_Direction
201 211 210 204 210 226 215 209 225 204 182 212 217 217 214 170 190 217 222 217 217 217 217 185 183 187 169 190 178 181 182 178 177 180 194 199 204 201 205 219 205 206 211 226
170 221 217 217 209 217 231 229 209 185 179 208 207 217 231 226 223 216 215 204 200 202 198 166 163 174 182 183 185 178 180 174 188 184 197 199 201 193 218 185 163 175 180 212
203 224 230 222 218 209 219 221 200 202 189 217 191 217 228 229 228 221 217 210 190 190 188 175 162 175 183 183 178 173 173 171 178 162 144 146 127 156 191 185 189 192 232 248
226 221 209 212 215 202 206 204 192 202 182 195 205 212 204 216 204 212 210 203 197 194 204 209 179 169 175 173 165 158 162 161 153 168 165 176 199 194 103 136 69 96 20 325
216 217 216 204 212 197 215 186 197 174 200 183 188 246 181 204 204 201 203 199 188 175 187 201 189 145 150 134 146 147 157 161 151 169 170 167 176 155 147 148 117 75 88 59
231 205 221 213 203 204 202 182 198 197 205 212 204 222 166 190 207 196 192 166 165 176 167 154 135 122 125 134 136 139 144 141 149 153 152 165 152 160 139 97 133 112 99 91
215 228 203 207 187 193 207 163 175 187 192 219 198 197 357 123 191 168 160 158 150 163 148 145 134 107 111 119 124 118 117 118 119 119 117 115 112 99 114 116 92 105 87 64
200 204 213 185 200 182 198 182 182 179 190 180 182 206 155 103 94 112 92 113 117 108 106 110 112 120 125 120 111 111 113 110 105 100 99 97 103 102 100 74 80 65 65 56
202 210 189 194 187 185 187 201 201 192 189 160 165 127 123 121 121 131 126 110 105 111 108 113 111 107 104 103 104 106 105 103 101 99 97 92 88 83 86 83 75 70 44 50
204 203 185 178 190 191 196 198 207 227 177 170 174 177 150 159 145 134 122 118 119 113 106 106 104 103 99 99 102 101 99 97 97 95 92 89 90 90 87 77 66 59 48 32
266 192 176 191 193 190 196 196 207 220 190 177 163 168 121 149 148 138 129 125 120 110 107 105 107 107 105 103 101 100 98 96 92 90 91 91 90 84 77 72 62 51 36 14
233 183 172 192 173 199 207 201 204 207 184 203 160 102 287 111 133 129 125 119 111 108 107 104 103 101 98 96 96 94 92 91 90 93 90 84 80 75 70 61 49 29 13 3
205 208 156 176 219 203 182 206 192 201 199 187 170 127 100 112 116 123 121 117 114 113 110 107 106 101 98 93 91 89 86 82 82 86 86 77 71 69 61 49 26 6 355 354
235 192 159 209 186 176 188 190 193 184 193 179 182 134 137 129 129 128 124 122 120 117 115 112 103 96 91 90 88 85 79 75 72 73 72 70 57 45 37 19 7 355 349 346
254 165 102 290 148 167 189 189 189 191 207 188 137 147 145 142 139 136 130 128 125 118 113 108 101 98 95 90 86 80 72 63 56 55 53 42 33 25 15 7 356 352 347 337
314 140 138 154 138 178 173 178 191 193 170 162 143 128 131 129 128 132 136 136 126 120 115 108 103 96 88 79 74 69 59 49 41 40 36 25 15 10 5 359 349 332 339 341
315 149 171 130 136 147 181 176 181 147 259 150 148 128 129 131 132 135 135 125 124 119 113 103 93 84 75 68 57 51 43 38 35 30 28 16 6 4 3 345 334 348 345 326
278 157 75 128 131 140 137 194 178 172 93 90 110 134 129 124 120 125 131 124 119 114 108 99 92 84 69 57 52 49 34 32 32 34 23 13 353 356 347 327 344 336 336 356
17 101 107 135 132 109 111 155 175 154 82 121 130 124 123 114 102 78 106 117 107 99 97 83 66 71 67 55 46 44 39 29 28 28 18 2 356 347 335 341 341 348 342 343
42 214 127 147 112 123 93 47 5 121 104 159 146 147 143 148 141 138 118 109 110 97 80 83 70 69 66 51 43 42 37 27 24 14 8 343 342 328 323 338 334 347 338 344
9 57 89 85 96 72 0 330 302 199 133 136 134 138 156 168 109 130 126 116 104 95 97 95 79 67 54 40 35 39 23 20 358 357 346 309 339 329 332 326 330 358 338 5
45 345 26 336 106 101 348 310 295 80 128 132 142 138 113 114 117 121 118 111 102 95 89 83 76 65 55 47 41 41 31 359 358 347 351 345 342 339 337 324 352 22 350 20
55 19 54 22 54 11 355 34 91 122 120 118 123 129 124 121 120 120 115 107 96 98 102 92 85 76 60 52 33 32 16 3 2 354 352 354 342 331 338 334 3 26 8 12
32 4 79 168 30 31 44 41 76 92 101 102 104 112 115 116 113 112 110 110 108 99 89 84 79 71 65 47 39 31 6 3 359 357 13 7 341 326 2 13 19 34 24 6
353 314 74 86 114 82 42 66 84 92 92 94 93 98 105 106 105 111 108 105 98 93 84 73 74 68 57 44 40 33 13 3 360 26 25 28 9 347 356 63 14 48 51 26
342 324 317 61 64 95 60 65 92 94 94 89 102 105 105 105 108 108 100 95 89 83 86 83 73 64 56 48 48 39 33 25 21 15 23 28 17 9 4 6 94 84 93 88